Bennington, VT

2:24 AM EDT on April 24, 2017 (GMT -0400)
Morse State

Weather History for KDDH - May, 2013

Change the Weather History Date:

Sunday, May 26, 2013

  Actual Average Record
Temperature  
Mean Temperature 45 °F 58 °F  
Max Temperature 53 °F 70 °F 85 °F (2015)
Min Temperature 36 °F 46 °F 36 °F (2013)
Degree Days  
Heating Degree Days 20 8  
Month to date heating degree days 233 282  
Since 1 July heating degree days 6626 7105  
Cooling Degree Days 0 0  
Month to date cooling degree days 15 0  
Year to date cooling degree days 15 3  
Moisture  
Dew Point 39 °F    
Average Humidity 79    
Maximum Humidity 92    
Minimum Humidity 66    
Precipitation  
Precipitation 0.21 in 0.14 in 0.73 in (2003)
Month to date precipitation 6.06 2.95  
Year to date precipitation 13.37 14.36  
Sea Level Pressure  
Sea Level Pressure 29.93 in    
Wind  
Wind Speed 6 mph (NW)    
Max Wind Speed 18 mph    
Max Gust Speed 29 mph    
Visibility 8 miles    
Events Rain    
T = Trace of Precipitation, MM = Missing Value Source: NWS Daily Summary

Daily Weather History Graph

Daily Weather History Graph

Search for Another Location

Airport or City:

Trip Planner

Search our weather history database for the weather conditions in past years. The results will help you decide how hot, cold, wet, or windy it might be!

Date:

Astronomy

May. 26, 2013 Rise Set
Actual Time 5:20 AM EDT 8:20 PM EDT
Civil Twilight 4:46 AM EDT 8:54 PM EDT
Nautical Twilight 4:03 AM EDT 9:37 PM EDT
Astronomical Twilight 3:12 AM EDT 10:28 PM EDT
Moon 10:04 PM EDT (5/26) 6:46 AM EDT (5/26)
Length of Visible Light 16h 07m
Length of Day
14h 59m
Waning Gibbous, 97% of the Moon is Illuminated
May 26
Waning Gibbous
May 31
Last Quarter
Jun 8
New
Jun 16
First Quarter
Jun 23
Full

Hourly Weather History & Observations

Time (EDT) Temp. Windchill Dew Point Humidity Pressure Visibility Wind Dir Wind Speed Gust Speed Precip Events Conditions
12:21 AM 41.0 °F 35.8 °F 37.4 °F 87% 29.87 in 4.0 mi NW 8.1 mph - 0.03 in Rain Light Rain
12:43 AM 41.0 °F 35.8 °F 37.4 °F 87% 29.87 in 4.0 mi NW 8.1 mph 17.3 mph 0.06 in Rain Light Rain
12:54 AM 39.9 °F 32.9 °F 37.0 °F 89% 29.88 in 5.0 mi NNW 11.5 mph 20.7 mph 0.09 in Rain Light Rain
1:27 AM 39.2 °F 33.0 °F 35.6 °F 87% 29.86 in 5.0 mi NW 9.2 mph 19.6 mph 0.09 in Rain Light Rain
1:54 AM 39.9 °F 35.1 °F 37.0 °F 89% 29.86 in 8.0 mi Variable 6.9 mph 17.3 mph 0.11 in Rain Light Rain
2:24 AM 41.0 °F 36.4 °F 37.4 °F 87% 29.84 in 7.0 mi Variable 6.9 mph 20.7 mph 0.00 in Rain Light Rain
2:54 AM 41.0 °F 34.3 °F 37.9 °F 89% 29.86 in 10.0 mi NW 11.5 mph 23.0 mph 0.01 in   Overcast
3:03 AM 41.0 °F 34.3 °F 37.4 °F 87% 29.84 in 10.0 mi NW 11.5 mph 23.0 mph N/A   Overcast
3:31 AM 41.0 °F 34.7 °F 37.4 °F 87% 29.84 in 10.0 mi WNW 10.4 mph 16.1 mph 0.00 in Rain Light Rain
3:41 AM 41.0 °F 36.4 °F 37.4 °F 87% 29.84 in 10.0 mi Variable 6.9 mph 19.6 mph 0.00 in   Overcast
3:54 AM 41.0 °F 35.8 °F 37.9 °F 89% 29.86 in 10.0 mi NW 8.1 mph - 0.00 in   Overcast
4:28 AM 42.8 °F 38.6 °F 37.4 °F 81% 29.84 in 10.0 mi NW 6.9 mph - 0.01 in   Overcast
4:54 AM 42.1 °F 37.7 °F 37.9 °F 85% 29.86 in 10.0 mi Variable 6.9 mph - 0.01 in   Overcast
5:13 AM 42.8 °F 37.5 °F 37.4 °F 81% 29.85 in 10.0 mi WNW 9.2 mph - N/A   Overcast
5:54 AM 42.1 °F 37.7 °F 39.0 °F 89% 29.87 in 10.0 mi Variable 6.9 mph - N/A   Overcast
6:13 AM 42.8 °F 38.6 °F 39.2 °F 87% 29.86 in 10.0 mi WNW 6.9 mph - 0.00 in Rain Light Rain
6:34 AM 42.8 °F 40.1 °F 39.2 °F 87% 29.87 in 10.0 mi NW 4.6 mph 18.4 mph 0.00 in   Overcast
6:47 AM 42.8 °F 38.6 °F 39.2 °F 87% 29.87 in 10.0 mi NW 6.9 mph 16.1 mph 0.00 in   Overcast
6:54 AM 43.0 °F 38.8 °F 39.0 °F 86% 29.89 in 10.0 mi NW 6.9 mph 21.9 mph 0.00 in   Overcast
7:08 AM 44.6 °F 41.4 °F 39.2 °F 81% 29.88 in 10.0 mi Variable 5.8 mph 20.7 mph N/A   Overcast
7:18 AM 44.6 °F 41.4 °F 39.2 °F 81% 29.88 in 10.0 mi NW 5.8 mph - N/A   Overcast
7:54 AM 45.0 °F 40.6 °F 39.9 °F 82% 29.90 in 10.0 mi NW 8.1 mph - N/A   Overcast
8:52 AM 46.4 °F 41.1 °F 39.2 °F 76% 29.91 in 10.0 mi NNW 11.5 mph 17.3 mph 0.00 in   Overcast
8:54 AM 46.0 °F 41.4 °F 39.0 °F 76% 29.92 in 10.0 mi NNW 9.2 mph 17.3 mph 0.00 in   Overcast
9:18 AM 46.4 °F 41.9 °F 39.2 °F 76% 29.91 in 10.0 mi WNW 9.2 mph 19.6 mph N/A   Overcast
9:32 AM 46.4 °F 41.9 °F 39.2 °F 76% 29.91 in 10.0 mi NW 9.2 mph 21.9 mph N/A   Overcast
9:54 AM 48.0 °F - 39.0 °F 71% 29.93 in 10.0 mi NW 12.7 mph 23.0 mph N/A   Overcast
10:52 AM 48.2 °F - 39.2 °F 71% 29.92 in 10.0 mi WNW 9.2 mph 18.4 mph N/A   Overcast
10:54 AM 50.0 °F - 39.9 °F 68% 29.93 in 10.0 mi NW 11.5 mph 18.4 mph N/A   Overcast
11:27 AM 48.2 °F - 41.0 °F 76% 29.92 in 6.0 mi WNW 8.1 mph 19.6 mph 0.00 in Rain Light Rain
11:54 AM 46.9 °F - 41.0 °F 80% 29.96 in 5.0 mi North 11.5 mph 16.1 mph 0.02 in Rain Light Rain
12:00 PM 46.4 °F 42.4 °F 41.0 °F 81% 29.94 in 2.5 mi NNW 8.1 mph 16.1 mph 0.01 in Rain Light Rain
12:03 PM 46.4 °F 42.4 °F 39.2 °F 76% 29.94 in 3.0 mi NW 8.1 mph 16.1 mph 0.01 in Rain Light Rain
12:12 PM 48.2 °F - 42.8 °F 82% 29.94 in 10.0 mi NNW 8.1 mph - 0.01 in Rain Light Rain
12:44 PM 48.2 °F - 39.2 °F 71% 29.96 in 10.0 mi NNW 11.5 mph 19.6 mph 0.02 in Rain Light Rain
12:54 PM 48.9 °F - 41.0 °F 74% 29.97 in 10.0 mi NNW 4.6 mph - 0.02 in   Overcast
1:14 PM 50.0 °F - 39.2 °F 66% 29.95 in 10.0 mi Variable 6.9 mph - N/A   Overcast
1:54 PM 51.1 °F - 41.0 °F 68% 29.97 in 7.0 mi WNW 9.2 mph 16.1 mph 0.00 in Rain Light Rain
2:12 PM 48.2 °F - 42.8 °F 82% 29.97 in 2.5 mi NNW 6.9 mph - 0.03 in Rain Light Rain
2:20 PM 48.2 °F - 44.6 °F 87% 29.97 in 4.0 mi NW 5.8 mph - 0.03 in Rain Light Rain
2:54 PM 48.0 °F - 42.1 °F 80% 30.01 in 9.0 mi NNW 5.8 mph - 0.05 in Rain Light Rain
3:54 PM 48.0 °F - 41.0 °F 77% 30.03 in 8.0 mi NNW 4.6 mph - 0.00 in Rain Light Rain
4:54 PM 50.0 °F - 43.0 °F 77% 30.05 in 10.0 mi NNW 8.1 mph - 0.00 in   Overcast
5:54 PM 48.9 °F - 44.1 °F 83% 30.07 in 10.0 mi WNW 6.9 mph - 0.01 in   Overcast
6:54 PM 50.0 °F - 42.1 °F 74% 30.09 in 10.0 mi NNW 4.6 mph - 0.00 in   Mostly Cloudy
7:54 PM 48.0 °F - 42.1 °F 80% 30.09 in 10.0 mi Calm Calm - N/A   Overcast
8:54 PM 42.1 °F 40.2 °F 39.9 °F 92% 30.10 in 10.0 mi SE 3.5 mph - N/A   Clear
9:54 PM 39.9 °F - 37.9 °F 93% 30.11 in 10.0 mi Calm Calm - N/A   Clear
10:54 PM 39.0 °F 36.8 °F 37.0 °F 93% 30.13 in 10.0 mi SE 3.5 mph - N/A   Clear
11:54 PM 37.0 °F - 35.1 °F 93% 30.14 in 7.0 mi Calm Calm - N/A   Clear